Location: Newark
(43.0000°N, 1.6781°W)
Time: 07:43:53
(UTC+00:00)

Vanguard 1 - Pass Details

Date: 22 April 2021
Orbit: 649 x 3834 km, 34.2° (Epoch: 04 May)

Event Time Altitude Azimuth Distance (km) Brightness Sun altitude
Rises 19:42:32 0° 282° (WNW) 7,386 16.4 -8.5°
Reaches altitude 10° 19:47:49 10° 275° (W) 6,634 15.5 -9.3°
Maximum altitude 20:06:59 36° 219° (SW) 5,005 13.7 -12.4°
Drops below altitude 10° 20:24:43 10° 162° (SSE) 6,084 13.6 -15.1°
Enters shadow 20:26:44 - 158° (SSE) 6,352 13.7 -15.4°
